This demonstration page uses our WeatherBlox Daily Observations layout. Learn more.

Left ArrowRight Arrow

30.21309, -93.2044

Hourly Observations for May 20, 2015

Temp ( °F °C ) Dew Point ( °F °C ) Humidity (%) Winds ( mph kmh ) Pressure ( in mb ) Visibility ( mi km ) Precip ( " mm )
12:15 am 00:15 Clear 73 22.7 72 22.3 98 98 S 3 6 30.00 1016 7 11 0.00 0.00
12:35 am 00:35 Clear 73 22.5 72 22 97 97 Calm 30.00 1016 7 11 0.00 0.00
12:55 am 00:55 Clear 73 22.7 72 22.3 98 98 Calm 30.00 1016 7 11 0.00 0.00
1:15 am 01:15 Clear 72 22.4 72 22 98 98 SSE 3 6 30.00 1016 7 11 0.00 0.00
1:35 am 01:35 Clear with Mist and Fog 72 22.1 72 22 99 99 SSE 3 6 30.00 1016 4 6 0.00 0.00
1:55 am 01:55 Clear with Mist and Fog 72 22.2 72 22 99 99 SE 3 6 30.00 1016 4 6 0.00 0.00
2:15 am 02:15 Clear with Mist and Fog 72 22.3 72 22.1 99 99 Calm 30.00 1016 4 6 0.00 0.00
2:35 am 02:35 Partly Cloudy with Mist and Fog 72 22 71 21.8 99 99 SE 3 6 29.97 1015 3 5 0.00 0.00
2:55 am 02:55 Clear with Mist and Fog 72 22 72 22 100 100 SSE 5 7 29.97 1015 4 6 0.00 0.00
3:15 am 03:15 Clear with Mist and Fog 72 22.2 72 22 99 99 SE 6 9 29.97 1015 5 8 0.00 0.00
3:35 am 03:35 Clear 73 22.7 73 22.5 99 99 SE 6 9 29.94 1014 7 11 0.00 0.00
3:55 am 03:55 Clear 73 22.7 73 22.5 99 99 SE 5 7 29.94 1014 7 11 0.00 0.00
4:15 am 04:15 Clear 73 22.7 72 22.3 98 98 SE 6 9 29.94 1014 7 11 0.00 0.00
4:35 am 04:35 Clear 73 22.7 72 22.3 98 98 SSE 6 9 29.94 1014 10 16 0.00 0.00
4:55 am 04:55 Clear 73 22.5 72 22.1 98 98 SSE 3 6 29.94 1014 10 16 0.00 0.00
5:15 am 05:15 Partly Cloudy 72 22.2 71 21.9 98 98 Calm 29.97 1015 7 11 0.00 0.00
6:00 am 06:00 Mostly Clear 72 22 72 22 100 100 Calm 29.97 1015 10 16 0.00 0.00
6:50 am 06:50 Partly Cloudy 72 22 72 22 100 100 Calm 29.97 1015 10 16 0.00 0.00
7:55 am 07:55 Partly Cloudy 77 25 73 23 89 89 Calm 30.00 1016 10 16 0.00 0.00
9:50 am 09:50 Mostly Cloudy 82 28 73 23 74 74 SSW 6 9 30.03 1017 10 16 0.00 0.00
10:50 am 10:50 Mostly Cloudy 84 29 72 22 66 66 SW 6 9 30.03 1017 10 16 0.00 0.00
11:50 am 11:50 Mostly Cloudy 84 29 72 22 66 66 SW 6 9 30.03 1017 10 16 0.00 0.00
12:50 pm 12:50 Mostly Cloudy 88 31 72 22 59 59 SW 9 15 30.00 1016 10 16 0.00 0.00
1:50 pm 13:50 Mostly Cloudy 88 31 70 21 55 55 SW 7 11 30.00 1016 10 16 0.00 0.00
2:50 pm 14:50 Mostly Cloudy 90 32 70 21 52 52 S 7 11 29.97 1015 10 16 0.00 0.00
3:50 pm 15:50 Mostly Cloudy 88 31 72 22 59 59 SSW 9 15 29.97 1015 10 16 0.00 0.00
4:50 pm 16:50 Partly Cloudy 88 31 70 21 55 55 S 8 13 29.97 1015 10 16 0.00 0.00
5:50 pm 17:50 Partly Cloudy 86 30 70 21 59 59 SSW 12 19 29.97 1015 10 16 0.00 0.00
6:50 pm 18:50 Partly Cloudy 82 28 70 21 66 66 SSW 8 13 29.94 1014 10 16 0.00 0.00
7:50 pm 19:50 Mostly Sunny 81 27 72 22 74 74 SSW 6 9 29.94 1014 10 16 0.00 0.00
8:50 pm 20:50 Mostly Clear 79 26 72 22 79 79 SSW 6 9 29.97 1015 10 16 0.00 0.00
9:50 pm 21:50 Mostly Clear 79 26 72 22 79 79 SSW 3 6 30.00 1016 10 16 0.00 0.00
10:15 pm 22:15 Clear 75 23.9 73 22.5 92 92 Calm 30.03 1017 10 16 0.00 0.00
10:35 pm 22:35 Clear 77 25.2 73 22.6 86 86 SSW 3 6 30.03 1017 10 16 0.00 0.00
10:55 pm 22:55 Clear 77 25.2 73 22.7 86 86 SSW 5 7 30.03 1017 10 16 0.00 0.00
11:15 pm 23:15 Clear 74 23.6 73 22.5 94 94 Calm 30.03 1017 10 16 0.00 0.00
11:35 pm 23:35 Clear 76 24.7 73 22.7 89 89 SSW 5 7 30.03 1017 10 16 0.00 0.00
11:55 pm 23:55 Clear 76 24.5 73 22.6 89 89 SSW 3 6 30.03 1017 10 16 0.00 0.00

Powered by AerisWeather